Location: Borotín
(49.5055°N, 14.6142°E)
Time: 12:17:19
(UTC+00:00)

SAR-Lupe-2 - Pass Details

Date: 27 May 2022
Orbit: 481 x 482 km, 98.1° (Epoch: 23 June)

Event Time Altitude Azimuth Distance (km) Brightness Sun altitude
Rises 00:36:36 0° 22° (NNE) 2,557 9.1 -16.0°
Reaches altitude 10° 00:38:50 10° 32° (NNE) 1,671 7.6 -15.8°
Maximum altitude 00:42:05 32° 98° (E) 847 4.9 -15.6°
Enters shadow 00:44:14 17° 152° (SSE) 1,268 5.3 -15.4°
